| time (UTC) | temp C | wind direction | speed KPH | gust KPH | rain 1hr cm | rain 24hr cm | rain mn cm | humidity % | barometer mb |
| 20260507030029 | 16 | 23 | 1.6 | 12.9 | 0.00 | 0.00 | 0.00 | 75 | 1019.7 |
| 20260507024527 | 17 | 37 | 1.6 | 11.3 | 0.00 | 0.00 | 0.00 | 74 | 1019.5 |
| 20260507023025 | 17 | 337 | 0.0 | 9.7 | 0.00 | 0.00 | 0.00 | 75 | 1019.4 |
| 20260507021523 | 18 | 42 | 0.0 | 4.8 | 0.00 | 0.00 | 0.00 | 74 | 1019.3 |
| 20260507020024 | 18 | 17 | 0.0 | 6.4 | 0.00 | 0.00 | 0.00 | 75 | 1019.3 |
| 20260507014523 | 18 | 24 | 1.6 | 9.7 | 0.00 | 0.00 | 0.00 | 74 | 1019.3 |
| 20260507013023 | 18 | 40 | 3.2 | 11.3 | 0.00 | 0.00 | 0.00 | 74 | 1019.3 |
| 20260507011523 | 19 | 301 | 6.4 | 14.5 | 0.00 | 0.00 | 0.00 | 73 | 1019.3 |
| 20260507010026 | 20 | 25 | 3.2 | 9.7 | 0.00 | 0.00 | 0.00 | 72 | 1019.2 |
| 20260507004522 | 20 | 21 | 3.2 | 12.9 | 0.00 | 0.00 | 0.00 | 72 | 1019.1 |
| 20260507003022 | 20 | 7 | 4.8 | 9.7 | 0.00 | 0.00 | 0.00 | 70 | 1019.1 |
| 20260507001518 | 20 | 74 | 0.0 | 1.6 | 0.00 | 0.00 | 0.00 | 69 | 1019.1 |
| 20260507000019 | 20 | 81 | 1.6 | 6.4 | 0.00 | 0.00 | 0.00 | 69 | 1019.1 |
| 20260506234520 | 20 | 92 | 0.0 | 1.6 | 0.00 | 0.00 | 0.00 | 66 | 1019.1 |
| 20260506233017 | 20 | 102 | 0.0 | 11.3 | 0.00 | 0.00 | 0.00 | 67 | 1019.1 |
| 20260506231517 | 20 | 75 | 0.0 | 6.4 | 0.00 | 0.00 | 0.00 | 68 | 1019.1 |
| 20260506230024 | 21 | 73 | 0.0 | 6.4 | 0.00 | 0.00 | 0.00 | 68 | 1019.3 |
| 20260506224517 | 21 | 69 | 1.6 | 8.0 | 0.00 | 0.00 | 0.00 | 67 | 1019.4 |
| 20260506223014 | 20 | 92 | 0.0 | 9.7 | 0.00 | 0.00 | 0.00 | 67 | 1019.5 |
| 20260506221514 | 20 | 78 | 0.0 | 11.3 | 0.00 | 0.00 | 0.00 | 67 | 1019.7 |
| 20260506220016 | 20 | 101 | 0.0 | 11.3 | 0.00 | 0.00 | 0.00 | 67 | 1019.7 |
| 20260506214510 | 20 | 105 | 0.0 | 6.4 | 0.00 | 0.00 | 0.00 | 71 | 1019.7 |
| 20260506213007 | 20 | 93 | 1.6 | 9.7 | 0.00 | 0.00 | 0.00 | 68 | 1019.8 |
| 20260506211506 | 19 | 89 | 0.0 | 9.7 | 0.00 | 0.00 | 0.00 | 72 | 1019.9 |
| 20260506210005 | 19 | 85 | 0.0 | 12.9 | 0.00 | 0.00 | 0.00 | 71 | 1020.1 |
| 20260506204503 | 18 | 88 | 0.0 | 8.0 | 0.00 | 0.00 | 0.00 | 71 | 1020.2 |
| 20260506203002 | 19 | 98 | 0.0 | 12.9 | 0.00 | 0.00 | 0.00 | 71 | 1020.1 |
| 20260506201507 | 18 | 93 | 3.2 | 9.7 | 0.00 | 0.00 | 0.00 | 73 | 1020.0 |
| 20260506200100 | 18 | 75 | 4.8 | 12.9 | 0.00 | 0.00 | 0.00 | 72 | 1020.3 |
| 20260506194559 | 18 | 97 | 3.2 | 11.3 | 0.00 | 0.00 | 0.00 | 73 | 1020.5 |
| 20260506193104 | 18 | 89 | 4.8 | 11.3 | 0.00 | 0.00 | 0.00 | 74 | 1020.6 |
| 20260506191611 | 18 | 107 | 3.2 | 9.7 | 0.00 | 0.00 | 0.00 | 74 | 1020.6 |
| 20260506190055 | 18 | 91 | 0.0 | 8.0 | 0.00 | 0.00 | 0.00 | 74 | 1020.5 |
| 20260506184604 | 17 | 105 | 4.8 | 11.3 | 0.00 | 0.00 | 0.00 | 77 | 1020.5 |
| 20260506183046 | 17 | 96 | 3.2 | 8.0 | 0.00 | 0.00 | 0.00 | 78 | 1020.5 |
| 20260506181544 | 17 | 124 | 6.4 | 9.7 | 0.00 | 0.00 | 0.00 | 80 | 1020.5 |
| 20260506180042 | 16 | 69 | 3.2 | 8.0 | 0.00 | 0.00 | 0.00 | 82 | 1020.6 |
| 20260506174537 | 15 | 77 | 0.0 | 0.0 | 0.00 | 0.00 | 0.00 | 81 | 1020.6 |
| 20260506173043 | 15 | 77 | 1.6 | 6.4 | 0.00 | 0.00 | 0.00 | 82 | 1020.7 |
| 20260506171548 | 15 | 58 | 1.6 | 8.0 | 0.00 | 0.00 | 0.00 | 82 | 1020.5 |
| 20260506170038 | 15 | 73 | 1.6 | 6.4 | 0.00 | 0.00 | 0.00 | 85 | 1020.5 |
| 20260506164530 | 14 | 78 | 0.0 | 6.4 | 0.00 | 0.00 | 0.00 | 85 | 1020.6 |
| 20260506163028 | 14 | 78 | 0.0 | 0.0 | 0.00 | 0.00 | 0.00 | 86 | 1020.8 |
| 20260506161525 | 13 | 77 | 0.0 | 1.6 | 0.00 | 0.00 | 0.00 | 85 | 1020.8 |
| 20260506160022 | 13 | 77 | 0.0 | 6.4 | 0.00 | 0.00 | 0.00 | 86 | 1020.6 |
| 20260506154522 | 13 | 77 | 0.0 | 6.4 | 0.00 | 0.00 | 0.00 | 86 | 1020.4 |
| 20260506153020 | 13 | 235 | 1.6 | 6.4 | 0.00 | 0.00 | 0.00 | 88 | 1020.0 |
| 20260506151523 | 12 | 273 | 0.0 | 1.6 | 0.00 | 0.00 | 0.00 | 90 | 1020.2 |
| 20260506150015 | 12 | 273 | 0.0 | 0.0 | 0.00 | 0.00 | 0.00 | 89 | 1020.7 |
| 20260506144512 | 12 | 273 | 0.0 | 0.0 | 0.00 | 0.00 | 0.00 | 89 | 1020.5 |
| 20260506143009 | 12 | 273 | 0.0 | 0.0 | 0.00 | 0.00 | 0.00 | 89 | 1020.6 |
| 20260506141506 | 12 | 275 | 0.0 | 0.0 | 0.00 | 0.00 | 0.00 | 89 | 1020.1 |
| 20260506140003 | 12 | 275 | 0.0 | 0.0 | 0.00 | 0.00 | 0.00 | 89 | 1019.6 |
| 20260506134502 | 12 | 275 | 0.0 | 0.0 | 0.00 | 0.00 | 0.00 | 90 | 1019.5 |
| 20260506133100 | 12 | 275 | 0.0 | 0.0 | 0.00 | 0.00 | 0.00 | 89 | 1019.6 |
| 20260506131612 | 12 | 275 | 0.0 | 0.0 | 0.00 | 0.00 | 0.00 | 89 | 1019.4 |
| 20260506130056 | 12 | 275 | 0.0 | 1.6 | 0.00 | 0.00 | 0.00 | 89 | 1019.2 |
| 20260506124552 | 12 | 275 | 0.0 | 0.0 | 0.00 | 0.00 | 0.00 | 89 | 1018.9 |
| 20260506123053 | 12 | 275 | 0.0 | 0.0 | 0.00 | 0.00 | 0.00 | 89 | 1018.9 |
| 20260506121556 | 13 | 275 | 0.0 | 0.0 | 0.00 | 0.00 | 0.00 | 89 | 1018.8 |
| 20260506120053 | 13 | 275 | 0.0 | 0.0 | 0.00 | 0.00 | 0.00 | 89 | 1018.9 |
| 20260506114554 | 12 | 275 | 0.0 | 4.8 | 0.00 | 0.00 | 0.00 | 89 | 1018.7 |
| 20260506113048 | 12 | 293 | 0.0 | 8.0 | 0.00 | 0.00 | 0.00 | 89 | 1018.7 |
| 20260506111547 | 12 | 36 | 0.0 | 0.0 | 0.00 | 0.00 | 0.00 | 89 | 1018.6 |
| 20260506110045 | 12 | 36 | 0.0 | 0.0 | 0.00 | 0.00 | 0.00 | 89 | 1018.4 |
| 20260506104545 | 12 | 36 | 0.0 | 0.0 | 0.00 | 0.00 | 0.00 | 89 | 1018.1 |
| 20260506103041 | 12 | 36 | 0.0 | 0.0 | 0.00 | 0.00 | 0.00 | 89 | 1017.9 |
| 20260506101543 | 13 | 36 | 0.0 | 0.0 | 0.00 | 0.00 | 0.00 | 89 | 1017.8 |
| 20260506100042 | 13 | 36 | 0.0 | 0.0 | 0.00 | 0.00 | 0.00 | 89 | 1017.7 |
| 20260506094536 | 13 | 36 | 0.0 | 0.0 | 0.00 | 0.00 | 0.00 | 89 | 1017.6 |
| 20260506093034 | 13 | 36 | 0.0 | 0.0 | 0.00 | 0.00 | 0.00 | 89 | 1017.4 |
| 20260506091534 | 13 | 36 | 0.0 | 0.0 | 0.00 | 0.00 | 0.00 | 89 | 1017.4 |
| 20260506090033 | 13 | 36 | 0.0 | 0.0 | 0.00 | 0.00 | 0.00 | 89 | 1017.4 |
| 20260506084537 | 13 | 36 | 0.0 | 0.0 | 0.00 | 0.00 | 0.00 | 88 | 1017.3 |
| 20260506083030 | 13 | 36 | 0.0 | 0.0 | 0.00 | 0.00 | 0.00 | 88 | 1017.3 |
| 20260506081529 | 13 | 36 | 0.0 | 1.6 | 0.00 | 0.00 | 0.00 | 89 | 1017.3 |
| 20260506073023 | 13 | 40 | 0.0 | 3.2 | 0.00 | 0.00 | 0.00 | 90 | 1017.0 |
| 20260506071522 | 13 | 40 | 0.0 | 0.0 | 0.00 | 0.00 | 0.00 | 90 | 1016.9 |
| 20260506061519 | 13 | 40 | 0.0 | 0.0 | 0.00 | 0.00 | 0.00 | 90 | 1016.7 |
| 20260506044527 | 13 | 40 | 0.0 | 0.0 | 0.00 | 0.00 | 0.00 | 88 | 1016.3 |
| 20260506043015 | 13 | 40 | 0.0 | 0.0 | 0.00 | 0.00 | 0.00 | 87 | 1016.2 |
| 20260506041515 | 13 | 40 | 0.0 | 0.0 | 0.00 | 0.00 | 0.00 | 86 | 1015.9 |
| 20260506040014 | 14 | 40 | 0.0 | 0.0 | 0.00 | 0.00 | 0.00 | 85 | 1015.6 |
| 20260506034518 | 15 | 40 | 0.0 | 0.0 | 0.00 | 0.00 | 0.00 | 83 | 1015.5 |
| 20260506033013 | 16 | 40 | 0.0 | 0.0 | 0.00 | 0.00 | 0.00 | 80 | 1015.2 |
| 20260506031527 | 16 | 40 | 0.0 | 0.0 | 0.00 | 0.00 | 0.00 | 77 | 1015.0 |